When you browse on this site, cookies collect data to enhance your experience and personalize the content and advertising you see.
Visit our Privacy Policy to learn more. By continuing to use the site, you agree to this use of cookies and data.
  • In Slovakia
  • List of Countries
  • For 7 days
  • Water Temperature
  • Satellite Maps
  • Weather Map
  • Weather Widgets
  • user-avatar
    Login

    Hourly Weather Sharan

    Today, 16 July, Tuesday

    Time Temperature Precipitation Wind Pressure Humidity
    00:00 +24°C° 0 mm 2 mps 585 mmHg 40%
    01:00 +24°C° 0 mm 2 mps 584 mmHg 47%
    02:00 +23°C° 0 mm 1 mps 584 mmHg 53%
    03:00 +22°C° 0 mm 1 mps 584 mmHg 55%
    04:00 +22°C° 0 mm 1 mps 584 mmHg 57%
    05:00 +21°C° 0 mm 1 mps 584 mmHg 56%
    06:00 +23°C° 0 mm 1 mps 584 mmHg 46%
    07:00 +24°C° 0 mm 2 mps 585 mmHg 36%
    08:00 +25°C° 0 mm 2 mps 586 mmHg 26%
    09:00 +27°C° 0 mm 2 mps 586 mmHg 21%
    10:00 +28°C° 0 mm 2 mps 587 mmHg 16%
    11:00 +29°C° 0 mm 2 mps 587 mmHg 12%
    12:00 +31°C° 0 mm 2 mps 587 mmHg 10%
    13:00 +32°C° 0 mm 2 mps 587 mmHg 9%
    14:00 +34°C° 0 mm 2 mps 588 mmHg 7%
    15:00 +34°C° 0 mm 2 mps 587 mmHg 8%
    16:00 +34°C° 0 mm 2 mps 587 mmHg 8%
    17:00 +33°C° 0 mm 1 mps 587 mmHg 8%
    18:00 +31°C° 0 mm 3 mps 587 mmHg 21%
    19:00 +29°C° 0 mm 5 mps 586 mmHg 33%
    20:00 +27°C° 0 mm 7 mps 586 mmHg 45%
    21:00 +26°C° 0.2 mm 5 mps 586 mmHg 49%
    22:00 +26°C° 0.2 mm 4 mps 586 mmHg 52%
    23:00 +25°C° 0.2 mm 2 mps 587 mmHg 55%

    Tomorrow, 17 July, Wednesday

    Time Temperature Precipitation Wind Pressure Humidity
    00:00 +25°C° 0.1 mm 2 mps 586 mmHg 57%
    01:00 +24°C° 0.1 mm 1 mps 586 mmHg 58%
    02:00 +21°C° 0.1 mm 0 mps 586 mmHg 60%
    03:00 +21°C° 0 mm 0 mps 585 mmHg 61%
    04:00 +20°C° 0 mm 0 mps 585 mmHg 63%
    05:00 +20°C° 0 mm 0 mps 585 mmHg 64%
    06:00 +21°C° 0 mm 0 mps 585 mmHg 60%
    07:00 +24°C° 0 mm 1 mps 586 mmHg 55%
    08:00 +25°C° 0 mm 1 mps 587 mmHg 51%
    09:00 +27°C° 0 mm 1 mps 587 mmHg 43%
    10:00 +28°C° 0 mm 2 mps 588 mmHg 35%
    11:00 +30°C° 0 mm 2 mps 588 mmHg 27%
    12:00 +31°C° 0 mm 3 mps 588 mmHg 22%
    13:00 +34°C° 0 mm 3 mps 588 mmHg 17%
    14:00 +35°C° 0 mm 3 mps 588 mmHg 12%
    15:00 +35°C° 0 mm 3 mps 588 mmHg 11%
    16:00 +36°C° 0 mm 3 mps 588 mmHg 11%
    17:00 +36°C° 0 mm 2 mps 588 mmHg 10%
    18:00 +34°C° 0 mm 4 mps 588 mmHg 19%
    19:00 +32°C° 0 mm 5 mps 587 mmHg 29%
    20:00 +29°C° 0 mm 6 mps 586 mmHg 38%
    21:00 +28°C° 0 mm 5 mps 587 mmHg 43%
    22:00 +27°C° 0 mm 4 mps 587 mmHg 47%
    23:00 +26°C° 0 mm 2 mps 587 mmHg 52%

    Day after tomorrow, 18 July, Thursday

    Time Temperature Precipitation Wind Pressure Humidity
    00:00 +26°C° 0.2 mm 2 mps 586 mmHg 54%
    01:00 +25°C° 0.2 mm 1 mps 586 mmHg 56%
    02:00 +25°C° 0.2 mm 1 mps 586 mmHg 58%
    03:00 +24°C° 0 mm 1 mps 586 mmHg 59%
    04:00 +21°C° 0 mm 0 mps 585 mmHg 61%
    05:00 +21°C° 0 mm 0 mps 585 mmHg 63%
    06:00 +22°C° 0 mm 0 mps 586 mmHg 58%
    07:00 +25°C° 0 mm 1 mps 586 mmHg 53%
    08:00 +26°C° 0 mm 1 mps 587 mmHg 49%
    09:00 +27°C° 0 mm 1 mps 587 mmHg 41%
    10:00 +29°C° 0 mm 2 mps 588 mmHg 33%
    11:00 +30°C° 0 mm 2 mps 588 mmHg 25%
    12:00 +32°C° 0 mm 2 mps 588 mmHg 21%
    13:00 +34°C° 0 mm 2 mps 588 mmHg 17%
    14:00 +35°C° 0 mm 3 mps 588 mmHg 13%
    15:00 +35°C° 0 mm 2 mps 588 mmHg 12%
    16:00 +36°C° 0 mm 2 mps 588 mmHg 11%
    17:00 +36°C° 0 mm 2 mps 588 mmHg 9%
    18:00 +34°C° 0 mm 3 mps 587 mmHg 20%
    19:00 +32°C° 0 mm 5 mps 587 mmHg 31%
    20:00 +29°C° 0 mm 6 mps 586 mmHg 41%
    21:00 +28°C° 0.1 mm 5 mps 586 mmHg 46%
    22:00 +27°C° 0.1 mm 3 mps 587 mmHg 50%
    23:00 +27°C° 0.1 mm 2 mps 587 mmHg 54%

    19 July, Friday

    Time Temperature Precipitation Wind Pressure Humidity
    00:00 +26°C° 0.1 mm 2 mps 586 mmHg 56%
    01:00 +25°C° 0.1 mm 1 mps 586 mmHg 57%
    02:00 +23°C° 0.1 mm 0 mps 586 mmHg 58%
    03:00 +22°C° 0 mm 0 mps 586 mmHg 60%
    04:00 +22°C° 0 mm 0 mps 586 mmHg 61%
    05:00 +21°C° 0 mm 0 mps 586 mmHg 62%
    06:00 +22°C° 0 mm 0 mps 586 mmHg 58%
    07:00 +23°C° 0 mm 0 mps 587 mmHg 53%
    08:00 +24°C° 0 mm 0 mps 587 mmHg 48%
    09:00 +28°C° 0 mm 1 mps 588 mmHg 42%
    10:00 +29°C° 0 mm 1 mps 588 mmHg 35%
    11:00 +31°C° 0 mm 1 mps 589 mmHg 28%
    12:00 +32°C° 0 mm 1 mps 589 mmHg 25%
    13:00 +34°C° 0 mm 2 mps 589 mmHg 21%
    14:00 +35°C° 0 mm 2 mps 589 mmHg 18%
    15:00 +35°C° 0 mm 2 mps 589 mmHg 18%
    16:00 +35°C° 0 mm 3 mps 588 mmHg 18%
    17:00 +36°C° 0 mm 3 mps 588 mmHg 18%
    18:00 +34°C° 0 mm 5 mps 588 mmHg 27%
    19:00 +32°C° 0 mm 6 mps 587 mmHg 35%
    20:00 +29°C° 0 mm 7 mps 587 mmHg 43%
    21:00 +29°C° 0.1 mm 5 mps 587 mmHg 47%
    22:00 +28°C° 0.1 mm 4 mps 587 mmHg 50%
    23:00 +27°C° 0.1 mm 3 mps 587 mmHg 54%

    20 July, Saturday

    Time Temperature Precipitation Wind Pressure Humidity
    00:00 +27°C° 0.2 mm 2 mps 587 mmHg 55%
    01:00 +26°C° 0.2 mm 1 mps 587 mmHg 57%
    02:00 +26°C° 0.2 mm 1 mps 587 mmHg 58%
    03:00 +23°C° 0 mm 0 mps 586 mmHg 60%
    04:00 +23°C° 0 mm 0 mps 586 mmHg 62%
    05:00 +22°C° 0 mm 0 mps 586 mmHg 63%
    06:00 +23°C° 0 mm 0 mps 587 mmHg 58%
    07:00 +24°C° 0 mm 0 mps 587 mmHg 54%
    08:00 +25°C° 0 mm 0 mps 588 mmHg 49%
    09:00 +27°C° 0 mm 0 mps 588 mmHg 41%
    10:00 +30°C° 0 mm 1 mps 589 mmHg 34%
    11:00 +32°C° 0 mm 1 mps 589 mmHg 27%
    12:00 +33°C° 0 mm 1 mps 589 mmHg 22%
    13:00 +34°C° 0 mm 1 mps 589 mmHg 18%
    14:00 +36°C° 0 mm 2 mps 590 mmHg 13%
    15:00 +36°C° 0 mm 2 mps 589 mmHg 15%
    16:00 +36°C° 0 mm 3 mps 589 mmHg 16%
    17:00 +36°C° 0 mm 4 mps 588 mmHg 17%
    18:00 +34°C° 0 mm 4 mps 588 mmHg 26%
    19:00 +32°C° 0 mm 5 mps 587 mmHg 35%
    20:00 +29°C° 0 mm 6 mps 587 mmHg 43%
    21:00 +28°C° 0 mm 4 mps 587 mmHg 44%
    22:00 +28°C° 0 mm 3 mps 587 mmHg 45%
    23:00 +28°C° 0 mm 1 mps 588 mmHg 46%

    21 July, Sunday

    Time Temperature Precipitation Wind Pressure Humidity
    00:00 +27°C° 0 mm 1 mps 587 mmHg 48%
    01:00 +26°C° 0 mm 1 mps 586 mmHg 49%
    02:00 +23°C° 0 mm 0 mps 586 mmHg 51%
    03:00 +25°C° 0 mm 1 mps 586 mmHg 49%
    04:00 +24°C° 0 mm 1 mps 585 mmHg 48%
    05:00 +24°C° 0 mm 1 mps 585 mmHg 46%
    06:00 +25°C° 0 mm 2 mps 586 mmHg 38%
    07:00 +26°C° 0 mm 2 mps 586 mmHg 29%
    08:00 +28°C° 0 mm 2 mps 587 mmHg 21%
    09:00 +29°C° 0 mm 2 mps 588 mmHg 17%
    10:00 +31°C° 0 mm 2 mps 588 mmHg 13%
    11:00 +32°C° 0 mm 2 mps 588 mmHg 10%
    12:00 +34°C° 0 mm 2 mps 588 mmHg 9%
    13:00 +35°C° 0 mm 2 mps 588 mmHg 8%
    14:00 +35°C° 0 mm 1 mps 588 mmHg 7%
    15:00 +36°C° 0 mm 2 mps 588 mmHg 6%
    16:00 +36°C° 0 mm 2 mps 588 mmHg 6%
    17:00 +37°C° 0 mm 2 mps 588 mmHg 5%
    18:00 +35°C° 0 mm 2 mps 587 mmHg 10%
    19:00 +33°C° 0 mm 3 mps 587 mmHg 15%
    20:00 +32°C° 0 mm 4 mps 586 mmHg 20%
    21:00 +30°C° 0 mm 3 mps 586 mmHg 22%
    22:00 +29°C° 0 mm 3 mps 586 mmHg 24%
    23:00 +28°C° 0 mm 3 mps 586 mmHg 27%
    Show more